Starlink 5554

operational
NORAD ID: 56338 Int'l Des: 2023-058 Owner: SPXS Country: US Constellation: starlink
LEOCIRCULARRETROGRADESSO

关于 Starlink 5554

正在加载描述...

实时位置

正在加载3D地球...

即将过境

高度历史

Altitude vs Time

uPlot chart will show altitude changes over time

两行轨道根数

1 56338U 23058X 26036.45619500 -.00004445 00000-0 -34154-3 0 9999
2 56338 97.6034 38.6351 0002093 108.7853 251.3598 15.01283968153294
Epoch: Feb 5, 2026 • Age: 6 hours

当前状态

高度 576.7 km
速度 7.57 km/s
星下点 -33.31°S, 10.05°E
发射日期 Apr 27, 2023
运行时间 2.7 years
类型 internet

技术详情

分类 Payload
质量 300.00 kg
干质量 260.00 kg
总质量 300.00 kg
长度 0.20 m
直径 2.80 m
跨度 9.00 m
形状 Box + pan
制造商 SPXS
平台类型 Starlink
阶段状态 In Orbit
所有者/国家 SPXS/US

大型星座

Loading constellations...